Погода в Саннане

Норвегия     61°46′22″N   6°11′48″E
темп.,
°C
ветер,
м/с
пор.,
м/с
влажн.,
%
обл.,
%
осадки,
мм/ч
давл.,
гПа
погр.,
м
25 мая, ср
ср2523:00+6юв2291100 0.0 99744
02:00+5ю339495 0.4 99766
05:00+6юв359396 3.1 997196
08:00+4ююз3695100 4.6 1000658
11:00+4ю3496100 0.8 1002324
14:00+8ю356592 0.9 10011120
17:00+9ю3454100 0.3 9991452
20:00+9ююв2357100 0.3 998974
26 мая, чт
чт2623:00+6юз228796 0.2 998146
02:00+5в119381 0.2 99718
05:00+5ю3392100 0.8 998407
08:00+5ю3594100 1.9 999614
11:00+4ююз3396100 2.3 1003600
14:00+5ю238471 4.5 1004600
17:00+6ююз347377 1.0 1004861
20:00+5юз237890 2.4 1003625
27 мая, пт
пт2723:00+3юз228557 0.4 100317
02:00+2ю228852 0.4 100216
05:00+1ю229662 0.1 1003120
08:00+3ююз118492 0.1 1003348
11:00+6зсз1263100 0.1 10031177
14:00+6ссз3469100 0.7 10041114
17:00+7ссз3564100 0.8 10051241
20:00+6ссз4662100 0.9 10071347
28 мая, сб
сб2823:00+3сз2385100 0.0 100959
02:00+2зюз1198100 0.9 1010215
05:00+3с2399100 1.8 1012388
08:00+3ссз2498100 2.8 1014583
11:00+3сз3497100 0.6 1016492
14:00+4сз2384100 0.8 1018636
17:00+7сз236796 0.2 10171223
20:00+5сз347464 0.3 1018760
29 мая, вс
вс2923:00+2сз3490100 0.0 1020345
02:00+1сз229998 0.3 1020131
05:00+1сз239895 0.5 1020196
08:00+2зсз129194 0.8 1019301
11:00+4з2276100 0.1 1018794
14:00+5з2272100 0.6 10171026
17:00+6зюз2266100 0.4 10151151
20:00+5ююз2268100 0.4 1013697